GW2897 Weather Reports


Display with metric or nautical units.
time (UTC)temp
F
wind
direction
speed
MPH
gust
MPH
rain 1hr
in
rain 24hr
in
rain mn
in
humidity
%
barometer
mb
20260506030904 68 122 2.0 9.0 0.00 0.00 0.00 71 1014.1
20260506030004 68 128 2.0 9.0 0.00 0.00 0.00 69 1014.0
20260506025405 69 133 2.0 7.0 0.00 0.00 0.00 68 1014.0
20260506024525 69 111 3.0 10.0 0.00 0.00 0.00 67 1013.9
20260506023657 69 113 2.0 10.0 0.00 0.00 0.00 65 1013.8
20260506022726 69 107 0.0 2.0 0.00 0.00 0.00 65 1013.5
20260506021825 69 166 0.0 3.0 0.00 0.00 0.00 63 1013.4
20260506020933 69 124 0.0 1.0 0.00 0.00 0.00 64 1013.4
20260506020004 69 119 0.0 1.0 0.00 0.00 0.00 65 1013.5
20260506015404 69 115 0.0 2.0 0.00 0.00 0.00 65 1013.6
20260506014505 69 130 0.0 1.0 0.00 0.00 0.00 63 1013.7
20260506013618 68 128 0.0 2.0 0.00 0.00 0.00 65 1013.7
20260506012704 67 0 0.0 0.0 0.00 0.00 0.00 66 1013.8
20260506011804 67 0 0.0 0.0 0.00 0.00 0.00 67 1013.7
20260506010920 68 0 0.0 0.0 0.00 0.00 0.00 67 1013.7
20260506010005 68 0 0.0 0.0 0.00 0.00 0.00 64 1013.5
20260506005404 69 0 0.0 0.0 0.00 0.00 0.00 64 1013.6
20260506004505 70 0 0.0 0.0 0.00 0.00 0.00 62 1013.4
20260506003604 71 136 0.0 1.0 0.00 0.00 0.00 61 1013.2
20260506002704 72 138 0.0 1.0 0.00 0.00 0.00 56 1013.2
20260506001804 73 128 0.0 1.0 0.00 0.00 0.00 54 1013.1
20260506000934 75 132 0.0 1.0 0.00 0.00 0.00 52 1012.9
20260506000004 76 211 1.0 4.0 0.00 0.00 0.00 49 1012.8
20260505235405 77 180 1.0 4.0 0.00 0.00 0.00 48 1012.7
20260505234504 79 161 0.0 3.0 0.00 0.00 0.00 47 1012.7
20260505233604 80 141 1.0 7.0 0.00 0.00 0.00 46 1012.7
20260505232726 80 150 2.0 8.0 0.00 0.00 0.00 45 1012.7
20260505231804 81 135 2.0 8.0 0.00 0.00 0.00 44 1013.0
20260505230910 82 148 1.0 8.0 0.00 0.00 0.00 44 1012.9
20260505230004 81 141 2.0 8.0 0.00 0.00 0.00 43 1012.9
20260505225404 82 145 1.0 6.0 0.00 0.00 0.00 43 1012.9
20260505224505 81 153 2.0 8.0 0.00 0.00 0.00 42 1013.0
20260505223605 82 142 2.0 9.0 0.00 0.00 0.00 42 1012.9
20260505222726 82 177 2.0 8.0 0.00 0.00 0.00 42 1013.1
20260505221805 81 153 2.0 8.0 0.00 0.00 0.00 44 1013.0
20260505220905 81 155 3.0 10.0 0.00 0.00 0.00 42 1013.1
20260505220004 82 133 2.0 7.0 0.00 0.00 0.00 42 1012.9
20260505215404 81 126 1.0 5.0 0.00 0.00 0.00 43 1013.0
20260505214505 82 149 3.0 8.0 0.00 0.00 0.00 41 1013.2
20260505213605 82 137 4.0 10.0 0.00 0.00 0.00 43 1013.1
20260505212705 81 183 4.0 11.0 0.00 0.00 0.00 42 1013.2
20260505211805 81 273 4.0 12.0 0.00 0.00 0.00 43 1013.1
20260505210904 81 263 4.0 13.0 0.00 0.00 0.00 43 1013.2
20260505210025 81 121 3.0 9.0 0.00 0.00 0.00 43 1013.4
20260505205404 81 132 2.0 6.0 0.00 0.00 0.00 45 1013.4
20260505204528 80 145 3.0 10.0 0.00 0.00 0.00 44 1013.4
20260505203604 81 121 2.0 7.0 0.00 0.00 0.00 44 1013.4
20260505202705 81 182 3.0 9.0 0.00 0.00 0.00 43 1013.7
20260505201805 82 154 2.0 10.0 0.00 0.00 0.00 40 1013.8
20260505200907 82 120 3.0 9.0 0.00 0.00 0.00 43 1013.9
20260505200004 81 135 3.0 8.0 0.00 0.00 0.00 43 1014.0
20260505195405 80 212 3.0 9.0 0.00 0.00 0.00 44 1014.1
20260505194508 80 270 4.0 13.0 0.00 0.00 0.00 44 1014.2
20260505193604 81 226 3.0 11.0 0.00 0.00 0.00 42 1014.4
20260505192705 81 208 3.0 11.0 0.00 0.00 0.00 45 1014.4
20260505191831 80 280 4.0 11.0 0.00 0.00 0.00 44 1014.6
20260505190904 80 263 4.0 13.0 0.00 0.00 0.00 42 1014.7
20260505190004 80 268 4.0 17.0 0.00 0.00 0.00 40 1014.9
20260505185404 80 265 4.0 17.0 0.00 0.00 0.00 40 1014.8
20260505184553 80 155 3.0 10.0 0.00 0.00 0.00 40 1014.9
20260505183625 80 162 4.0 12.0 0.00 0.00 0.00 41 1015.1
20260505182704 80 246 4.0 11.0 0.00 0.00 0.00 41 1015.5
20260505181805 80 216 3.0 12.0 0.00 0.00 0.00 40 1015.6
20260505180904 80 251 4.0 10.0 0.00 0.00 0.00 45 1015.8
20260505180004 79 167 4.0 10.0 0.00 0.00 0.00 42 1015.9
20260505175405 79 207 4.0 10.0 0.00 0.00 0.00 44 1016.0
20260505174520 79 252 2.0 10.0 0.00 0.00 0.00 48 1015.9
20260505173604 79 234 4.0 10.0 0.00 0.00 0.00 49 1015.9
20260505172704 79 193 2.0 9.0 0.00 0.00 0.00 47 1015.8
20260505171812 78 184 3.0 11.0 0.00 0.00 0.00 46 1015.9
20260505170904 77 270 6.0 12.0 0.00 0.00 0.00 46 1015.8
20260505170004 77 275 5.0 14.0 0.00 0.00 0.00 46 1016.0
20260505165404 77 266 4.0 11.0 0.00 0.00 0.00 50 1015.9
20260505164506 78 141 5.0 11.0 0.00 0.00 0.00 47 1016.2
20260505163604 78 216 3.0 10.0 0.00 0.00 0.00 46 1016.2
20260505162704 77 253 3.0 11.0 0.00 0.00 0.00 48 1016.4
20260505161844 77 221 3.0 9.0 0.00 0.00 0.00 49 1016.6
20260505160904 77 153 3.0 8.0 0.00 0.00 0.00 52 1016.6
20260505152725 73 279 4.0 11.0 0.00 0.00 0.00 65 1016.9
20260505151805 74 175 2.0 9.0 0.00 0.00 0.00 66 1016.9
20260505150904 72 278 4.0 9.0 0.00 0.00 0.00 68 1016.9
20260505124504 61 254 2.0 7.0 0.00 0.00 0.00 85 1016.5
20260505123604 60 183 1.0 6.0 0.00 0.00 0.00 86 1016.5
20260505122704 59 135 1.0 6.0 0.00 0.00 0.00 87 1016.5
20260505121825 59 153 0.0 2.0 0.00 0.00 0.00 88 1016.3
20260505120905 58 101 0.0 1.0 0.00 0.00 0.00 89 1016.2
20260505120014 57 110 0.0 2.0 0.00 0.00 0.00 90 1016.1
20260505115411 56 108 0.0 2.0 0.00 0.00 0.00 90 1016.0
20260505114504 55 110 0.0 3.0 0.00 0.00 0.00 92 1016.0
20260505113604 54 132 0.0 1.0 0.00 0.00 0.00 92 1016.0
20260505112705 54 0 0.0 0.0 0.00 0.00 0.00 92 1016.0
20260505111804 53 0 0.0 0.0 0.00 0.00 0.00 92 1015.9
20260505110904 53 142 0.0 1.0 0.00 0.00 0.00 91 1015.7
20260505101805 54 257 0.0 1.0 0.00 0.00 0.00 89 1015.3
20260505100904 54 336 0.0 1.0 0.00 0.00 0.00 89 1015.3
20260505100004 54 345 0.0 1.0 0.00 0.00 0.00 88 1015.3
20260505095425 55 144 0.0 1.0 0.00 0.00 0.00 88 1015.2
20260505094504 55 92 0.0 1.0 0.00 0.00 0.00 87 1015.3
20260505093604 55 80 0.0 1.0 0.00 0.00 0.00 87 1015.2
20260505092704 56 291 0.0 1.0 0.00 0.00 0.00 86 1015.2
20260505091825 56 325 0.0 1.0 0.00 0.00 0.00 86 1015.2
20260505090904 56 34 0.0 1.0 0.00 0.00 0.00 86 1015.1
20260505090031 56 144 0.0 3.0 0.00 0.00 0.00 86 1015.1
20260505085404 56 104 0.0 3.0 0.00 0.00 0.00 86 1015.1
20260505084525 56 355 0.0 2.0 0.00 0.00 0.00 86 1015.1
20260505083604 56 290 0.0 2.0 0.00 0.00 0.00 86 1015.1
20260505082704 55 325 0.0 2.0 0.00 0.00 0.00 86 1015.2
20260505081804 55 77 0.0 4.0 0.00 0.00 0.00 86 1015.2
20260505080906 55 85 0.0 4.0 0.00 0.00 0.00 86 1015.2
20260505080026 55 118 0.0 1.0 0.00 0.00 0.00 86 1015.2
20260505075404 55 123 0.0 1.0 0.00 0.00 0.00 85 1015.1
20260505074505 55 89 0.0 1.0 0.00 0.00 0.00 85 1015.1
20260505073605 55 109 0.0 1.0 0.00 0.00 0.00 85 1015.1
20260505072704 56 94 0.0 1.0 0.00 0.00 0.00 83 1015.0
20260505071804 57 0 0.0 0.0 0.00 0.00 0.00 81 1015.0
20260505070905 58 125 0.0 3.0 0.00 0.00 0.00 80 1015.0
20260505070005 58 114 0.0 3.0 0.00 0.00 0.00 79 1014.9
20260505065404 58 98 0.0 3.0 0.00 0.00 0.00 79 1014.9
20260505064504 58 98 0.0 4.0 0.00 0.00 0.00 78 1014.9
20260505063604 58 129 0.0 2.0 0.00 0.00 0.00 78 1014.9
20260505062725 59 149 1.0 3.0 0.00 0.00 0.00 77 1014.9
20260505061804 59 128 1.0 4.0 0.00 0.00 0.00 77 1014.9
20260505060904 59 136 1.0 7.0 0.00 0.00 0.00 76 1015.0
20260505060025 59 142 1.0 4.0 0.00 0.00 0.00 76 1015.0
20260505055404 59 141 1.0 4.0 0.00 0.00 0.00 76 1015.0
20260505054504 60 123 1.0 4.0 0.00 0.00 0.00 75 1015.1
20260505053604 60 125 1.0 4.0 0.00 0.00 0.00 75 1015.1
20260505052704 60 130 1.0 4.0 0.00 0.00 0.00 74 1015.2
20260505051807 60 131 1.0 5.0 0.00 0.00 0.00 73 1015.3
20260505050905 60 134 1.0 3.0 0.00 0.00 0.00 72 1015.4
20260505040903 62 152 1.0 5.0 0.00 0.00 0.00 68 1015.3
20260505040005 62 125 1.0 5.0 0.00 0.00 0.00 67 1015.3
20260505035404 62 117 1.0 5.0 0.00 0.00 0.00 66 1015.3
20260505034504 62 110 0.0 3.0 0.00 0.00 0.00 64 1015.4
20260505033604 60 111 1.0 3.0 0.00 0.00 0.00 67 1015.5
20260505032725 61 121 0.0 3.0 0.00 0.00 0.00 70 1015.3
20260505031804 62 131 0.0 2.0 0.00 0.00 0.00 66 1015.3